Location: Bratsk-Energetik
(56.3300°N, 101.7600°E)
Time: 14:18:24
(UTC+08:00)

ISS - Pass Details

Date: 16 July 2018
Orbit: 402 x 408 km, 51.6° (Epoch: 16 July)

Event Time Altitude Azimuth Distance (km) Brightness Sun altitude
Exits shadow 00:48:48 13° 128° (SE) 1,322 -1.6 -12.0°
Drops below altitude 10° 00:49:35 10° 115° (ESE) 1,468 -1.3 -12.0°
Sets 00:52:23 0° 89° (E) 2,333 0.0 -12.0°
